Regional Weather Roundup
Issued by NWS

Home | Current Version | Previous Version | Text Only | Print | Product List | Glossary Off
Versions: 1 2 3 4 5 6 7 8 9 10 11 12 13 14 15 16 17 18 19 20 21 22 23 24 25 26 27 28 29 30 31 32 33 34 35 36 37 38 39 40 41 42 43 44 45 46 47 48 49 50

000
ASUS43 KOAX 230902
RWRNE

WEATHER ROUNDUP FOR NEBRASKA
NATIONAL WEATHER SERVICE OMAHA NE
400 AM CDT WED AUG 23 2017

NOTES: SATELLITE DATA IS BEING USED TO AUGMENT CLOUD COVER ABOVE
       12000 FEET.
       "FAIR" INDICATES FEW OR NO CLOUDS BELOW 12,000 FEET WITH NO
       SIGNIFICANT WEATHER AND/OR OBSTRUCTIONS TO VISIBILITY.


NEZ001>004-019>022-054>056-231000-
NEBRASKA PANHANDLE

CITY           SKY/WX    TMP DP  RH WIND       PRES   REMARKS
SCOTTSBLUFF    CLEAR     59  53  80 E8        30.14S
ALLIANCE       CLEAR     58  50  75 S12       30.14F
CHADRON        CLEAR     67  52  58 SW9       30.08R
GORDON         FAIR      62  49  62 CALM      30.13S
KIMBALL        CLEAR     59  55  85 S8        30.19S
SIDNEY         CLEAR     61  53  75 S17       30.18F
$$

NEZ057>060-069>072-079>082-231000-
SOUTHWEST NEBRASKA

CITY           SKY/WX    TMP DP  RH WIND       PRES   REMARKS
NORTH PLATTE   CLEAR     61  53  75 S10       30.18F
IMPERIAL       CLEAR     57  49  74 S7        30.20S
LEXINGTON      PTCLDY    59  52  78 S5        30.18F
MCCOOK         CLEAR     59  51  75 S7        30.19F
OGALLALA       CLEAR     59  52  76 CALM      30.18F
$$

NEZ005>010-023>029-035>040-094-231000-
NORTH CENTRAL NEBRASKA

CITY           SKY/WX    TMP DP  RH WIND       PRES   REMARKS
VALENTINE      CLEAR     59  50  72 CALM      30.13S
AINSWORTH      CLEAR     56  54  91 S6        30.14F
BROKEN BOW     CLEAR     60  52  74 S6        30.17S
O`NEILL        CLEAR     56  54  90 S5        30.16F
ORD            CLEAR     59  52  77 SE6       30.16F
THEDFORD       CLEAR     62  53  72 S9        30.17S
$$

NEZ041-046>049-061>064-073>077-083>087-231000-
SOUTH CENTRAL NEBRASKA

CITY           SKY/WX    TMP DP  RH WIND       PRES   REMARKS
GRAND ISLAND   CLEAR     57  54  89 S7        30.19S
AURORA         CLEAR     58  53  82 S6        30.19S
HASTINGS       CLEAR     58  51  78 S6        30.20F
HEBRON         CLEAR     53  51  95 CALM      30.19F
HOLDREGE       CLEAR     56  51  83 S6        30.19F
KEARNEY        CLEAR     56  52  86 S7        30.19F
$$

NEZ011>018-030>034-042>045-231000-
NORTHEAST NEBRASKA

CITY           SKY/WX    TMP DP  RH WIND       PRES   REMARKS
NORFOLK        CLEAR     53  52  96 CALM      30.16F
ALBION         CLEAR     55  54  96 CALM      30.18S
BLAIR          CLEAR     56  53  87 SW3       30.17S
COLUMBUS       FOG       52  52 100 CALM      30.18F VSB 1
FREMONT        CLEAR     56  55  97 CALM      30.17F
TEKAMAH        CLEAR     53  51  93 CALM      30.16S
WAYNE          CLEAR     51  49  92 S3        30.16F
$$

NEZ050>053-065>068-078-088>093-231000-
SOUTHEAST NEBRASKA

CITY           SKY/WX    TMP DP  RH WIND       PRES   REMARKS
LINCOLN        CLEAR     56  54  93 CALM      30.18F
OMAHA EPPLEY   CLEAR     59  54  83 CALM      30.17S
BEATRICE       CLEAR     54  52  92 CALM      30.18S
FALLS CITY     CLEAR     54  53  97 W3        30.17S
NEBRASKA CITY  CLEAR     55  55 100 SW5       30.17F
$$

NEZ044-045-051>053-067-231000-
OMAHA AREA

CITY           SKY/WX    TMP DP  RH WIND       PRES   REMARKS
OMAHA EPPLEY   CLEAR     59  54  83 CALM      30.17S
BLAIR          CLEAR     56  53  87 SW3       30.17S
FREMONT        CLEAR     56  55  97 CALM      30.17F
MILLARD        CLEAR     57  56  95 CALM      30.17S
OFFUTT AFB     CLEAR     51  50  97 CALM      30.16S FOG
WAHOO          FAIR      55  54  95 CALM      30.17F
$$




USA.gov is the U.S. government's official web portal to all federal, state and local government web resources and services.